| time (UTC) | temp C | wind direction | speed KPH | gust KPH | rain 1hr cm | rain 24hr cm | rain mn cm | humidity % | barometer mb |
| 20260902212514 | 33 | 150 | 0.0 | 8.0 | 0.00 | 0.00 | 0.00 | 54 | 1017.2 |
| 20260902212015 | 34 | 175 | 0.0 | 4.8 | 0.00 | 0.00 | 0.00 | 54 | 1017.2 |
| 20260902211532 | 33 | 111 | 0.0 | 12.9 | 0.00 | 0.00 | 0.00 | 54 | 1017.1 |
| 20260902211018 | 34 | 240 | 1.6 | 12.9 | 0.00 | 0.00 | 0.00 | 54 | 1017.2 |
| 20260902210518 | 34 | 229 | 0.0 | 8.0 | 0.00 | 0.00 | 0.00 | 54 | 1017.2 |
| 20260902210007 | 33 | 205 | 0.0 | 9.7 | 0.00 | 0.00 | 0.00 | 52 | 1017.2 |
| 20260902205504 | 33 | 155 | 0.0 | 9.7 | 0.00 | 0.00 | 0.00 | 56 | 1017.3 |
| 20260902205003 | 34 | 203 | 0.0 | 9.7 | 0.00 | 0.00 | 0.00 | 53 | 1017.3 |
| 20260902204512 | 34 | 204 | 1.6 | 8.0 | 0.00 | 0.00 | 0.00 | 54 | 1017.3 |
| 20260902204006 | 34 | 254 | 1.6 | 9.7 | 0.00 | 0.00 | 0.00 | 56 | 1017.4 |
| 20260902203503 | 34 | 223 | 1.6 | 9.7 | 0.00 | 0.00 | 0.00 | 53 | 1017.5 |
| 20260902203006 | 34 | 166 | 1.6 | 9.7 | 0.00 | 0.00 | 0.00 | 55 | 1017.4 |
| 20260902202502 | 34 | 264 | 1.6 | 8.0 | 0.00 | 0.00 | 0.00 | 52 | 1017.5 |
| 20260902202004 | 33 | 248 | 0.0 | 4.8 | 0.00 | 0.00 | 0.00 | 56 | 1017.6 |
| 20260902201506 | 33 | 248 | 1.6 | 6.4 | 0.00 | 0.00 | 0.00 | 56 | 1017.5 |
| 20260902201002 | 34 | 248 | 1.6 | 12.9 | 0.00 | 0.00 | 0.00 | 50 | 1017.5 |
| 20260902200503 | 34 | 227 | 4.8 | 12.9 | 0.00 | 0.00 | 0.00 | 49 | 1017.6 |
| 20260902200006 | 35 | 196 | 1.6 | 11.3 | 0.00 | 0.00 | 0.00 | 51 | 1017.6 |
| 20260902195502 | 34 | 214 | 0.0 | 11.3 | 0.00 | 0.00 | 0.00 | 53 | 1017.7 |
| 20260902195003 | 34 | 238 | 4.8 | 9.7 | 0.00 | 0.00 | 0.00 | 52 | 1017.7 |
| 20260902194513 | 34 | 150 | 0.0 | 12.9 | 0.00 | 0.00 | 0.00 | 53 | 1017.8 |
| 20260902194003 | 34 | 201 | 1.6 | 24.1 | 0.00 | 0.00 | 0.00 | 51 | 1017.9 |
| 20260902193503 | 35 | 205 | 8.0 | 24.1 | 0.00 | 0.00 | 0.00 | 51 | 1017.9 |
| 20260902193006 | 34 | 233 | 1.6 | 11.3 | 0.00 | 0.00 | 0.00 | 53 | 1018.0 |
| 20260902192503 | 33 | 244 | 1.6 | 6.4 | 0.00 | 0.00 | 0.00 | 53 | 1018.0 |
| 20260902192003 | 33 | 211 | 1.6 | 12.9 | 0.00 | 0.00 | 0.00 | 55 | 1018.1 |
| 20260902191506 | 33 | 257 | 1.6 | 12.9 | 0.00 | 0.00 | 0.00 | 52 | 1018.1 |
| 20260902191002 | 33 | 247 | 4.8 | 14.5 | 0.00 | 0.00 | 0.00 | 55 | 1018.2 |
| 20260902190503 | 33 | 246 | 4.8 | 16.1 | 0.00 | 0.00 | 0.00 | 52 | 1018.2 |
| 20260902190006 | 34 | 242 | 8.0 | 16.1 | 0.00 | 0.00 | 0.00 | 51 | 1018.2 |
| 20260902185503 | 35 | 236 | 1.6 | 11.3 | 0.00 | 0.00 | 0.00 | 54 | 1018.2 |
| 20260902185001 | 34 | 273 | 3.2 | 11.3 | 0.00 | 0.00 | 0.00 | 51 | 1018.2 |
| 20260902184507 | 34 | 187 | 0.0 | 16.1 | 0.00 | 0.00 | 0.00 | 51 | 1018.3 |
| 20260902184004 | 34 | 194 | 3.2 | 17.7 | 0.00 | 0.00 | 0.00 | 55 | 1018.4 |
| 20260902183505 | 34 | 198 | 1.6 | 17.7 | 0.00 | 0.00 | 0.00 | 53 | 1018.4 |
| 20260902183009 | 34 | 233 | 8.0 | 14.5 | 0.00 | 0.00 | 0.00 | 51 | 1018.4 |
| 20260902182501 | 34 | 229 | 4.8 | 17.7 | 0.00 | 0.00 | 0.00 | 52 | 1018.5 |
| 20260902182004 | 34 | 229 | 1.6 | 17.7 | 0.00 | 0.00 | 0.00 | 54 | 1018.6 |
| 20260902181508 | 33 | 206 | 4.8 | 14.5 | 0.00 | 0.00 | 0.00 | 54 | 1018.5 |
| 20260902181002 | 33 | 253 | 6.4 | 14.5 | 0.00 | 0.00 | 0.00 | 53 | 1018.6 |
| 20260902180502 | 33 | 315 | 4.8 | 20.9 | 0.00 | 0.00 | 0.00 | 53 | 1018.6 |
| 20260902180010 | 33 | 232 | 8.0 | 20.9 | 0.00 | 0.00 | 0.00 | 55 | 1018.6 |
| 20260902175506 | 33 | 271 | 4.8 | 16.1 | 0.00 | 0.00 | 0.00 | 52 | 1018.6 |
| 20260902175006 | 33 | 219 | 6.4 | 16.1 | 0.00 | 0.00 | 0.00 | 51 | 1018.7 |
| 20260902174509 | 34 | 198 | 3.2 | 20.9 | 0.00 | 0.00 | 0.00 | 55 | 1018.7 |
| 20260902174003 | 33 | 269 | 4.8 | 20.9 | 0.00 | 0.00 | 0.00 | 54 | 1018.8 |
| 20260902173505 | 33 | 180 | 0.0 | 12.9 | 0.00 | 0.00 | 0.00 | 56 | 1018.7 |
| 20260902173010 | 33 | 246 | 6.4 | 12.9 | 0.00 | 0.00 | 0.00 | 55 | 1018.8 |
| 20260902172507 | 33 | 229 | 6.4 | 12.9 | 0.00 | 0.00 | 0.00 | 56 | 1018.9 |
| 20260902172010 | 32 | 242 | 1.6 | 14.5 | 0.00 | 0.00 | 0.00 | 59 | 1018.9 |
| 20260902171510 | 33 | 225 | 4.8 | 14.5 | 0.00 | 0.00 | 0.00 | 55 | 1019.1 |
| 20260902171010 | 33 | 220 | 6.4 | 14.5 | 0.00 | 0.00 | 0.00 | 55 | 1019.1 |
| 20260902170506 | 33 | 260 | 3.2 | 16.1 | 0.00 | 0.00 | 0.00 | 54 | 1019.0 |
| 20260902170011 | 33 | 152 | 3.2 | 16.1 | 0.00 | 0.00 | 0.00 | 57 | 1019.1 |
| 20260902165503 | 33 | 160 | 0.0 | 9.7 | 0.00 | 0.00 | 0.00 | 59 | 1019.0 |
| 20260902165007 | 33 | 167 | 1.6 | 9.7 | 0.00 | 0.00 | 0.00 | 59 | 1019.0 |
| 20260902164515 | 32 | 243 | 3.2 | 11.3 | 0.00 | 0.00 | 0.00 | 59 | 1019.2 |
| 20260902164006 | 32 | 198 | 3.2 | 11.3 | 0.00 | 0.00 | 0.00 | 60 | 1019.2 |
| 20260902163507 | 32 | 203 | 1.6 | 12.9 | 0.00 | 0.00 | 0.00 | 60 | 1019.2 |
| 20260902163012 | 32 | 173 | 0.0 | 17.7 | 0.00 | 0.00 | 0.00 | 59 | 1019.3 |
| 20260902162505 | 33 | 219 | 4.8 | 17.7 | 0.00 | 0.00 | 0.00 | 59 | 1019.3 |
| 20260902162007 | 33 | 212 | 3.2 | 11.3 | 0.00 | 0.00 | 0.00 | 61 | 1019.3 |
| 20260902161513 | 32 | 265 | 4.8 | 11.3 | 0.00 | 0.00 | 0.00 | 62 | 1019.3 |
| 20260902161006 | 32 | 225 | 3.2 | 14.5 | 0.00 | 0.00 | 0.00 | 59 | 1019.3 |
| 20260902160507 | 32 | 227 | 3.2 | 14.5 | 0.00 | 0.00 | 0.00 | 61 | 1019.4 |
| 20260902160017 | 32 | 225 | 4.8 | 14.5 | 0.00 | 0.00 | 0.00 | 60 | 1019.4 |
| 20260902155511 | 32 | 251 | 1.6 | 11.3 | 0.00 | 0.00 | 0.00 | 63 | 1019.4 |
| 20260902155008 | 32 | 213 | 1.6 | 12.9 | 0.00 | 0.00 | 0.00 | 64 | 1019.4 |
| 20260902154521 | 32 | 174 | 3.2 | 12.9 | 0.00 | 0.00 | 0.00 | 63 | 1019.5 |
| 20260902154006 | 32 | 248 | 1.6 | 9.7 | 0.00 | 0.00 | 0.00 | 65 | 1019.5 |
| 20260902153506 | 31 | 248 | 3.2 | 9.7 | 0.00 | 0.00 | 0.00 | 64 | 1019.5 |
| 20260902153014 | 31 | 216 | 3.2 | 9.7 | 0.00 | 0.00 | 0.00 | 66 | 1019.5 |
| 20260902152508 | 31 | 155 | 1.6 | 8.0 | 0.00 | 0.00 | 0.00 | 69 | 1019.5 |
| 20260902152007 | 31 | 152 | 0.0 | 8.0 | 0.00 | 0.00 | 0.00 | 68 | 1019.6 |
| 20260902151514 | 30 | 203 | 1.6 | 8.0 | 0.00 | 0.00 | 0.00 | 70 | 1019.6 |
| 20260902151009 | 30 | 111 | 0.0 | 4.8 | 0.00 | 0.00 | 0.00 | 72 | 1019.6 |
| 20260902150508 | 30 | 110 | 0.0 | 4.8 | 0.00 | 0.00 | 0.00 | 70 | 1019.6 |
| 20260902150018 | 30 | 110 | 0.0 | 4.8 | 0.00 | 0.00 | 0.00 | 73 | 1019.6 |
| 20260902145507 | 29 | 110 | 0.0 | 3.2 | 0.00 | 0.00 | 0.00 | 76 | 1019.5 |
| 20260902145010 | 29 | 110 | 0.0 | 3.2 | 0.00 | 0.00 | 0.00 | 74 | 1019.4 |
| 20260902144518 | 29 | 111 | 0.0 | 3.2 | 0.00 | 0.00 | 0.00 | 74 | 1019.4 |
| 20260902144008 | 29 | 111 | 0.0 | 3.2 | 0.00 | 0.00 | 0.00 | 74 | 1019.4 |
| 20260902143508 | 28 | 111 | 0.0 | 3.2 | 0.00 | 0.00 | 0.00 | 76 | 1019.6 |
| 20260902143015 | 28 | 110 | 0.0 | 3.2 | 0.00 | 0.00 | 0.00 | 77 | 1019.6 |
| 20260902142507 | 28 | 110 | 0.0 | 1.6 | 0.00 | 0.00 | 0.00 | 75 | 1019.6 |
| 20260902142008 | 28 | 110 | 0.0 | 1.6 | 0.00 | 0.00 | 0.00 | 77 | 1019.7 |
| 20260902141531 | 28 | 110 | 0.0 | 1.6 | 0.00 | 0.00 | 0.00 | 77 | 1019.7 |
| 20260902141007 | 27 | 110 | 0.0 | 0.0 | 0.00 | 0.00 | 0.00 | 79 | 1019.7 |
| 20260902140507 | 27 | 110 | 0.0 | 0.0 | 0.00 | 0.00 | 0.00 | 80 | 1019.6 |
| 20260902140020 | 27 | 110 | 0.0 | 3.2 | 0.00 | 0.00 | 0.00 | 82 | 1019.6 |
| 20260902135509 | 26 | 110 | 0.0 | 3.2 | 0.00 | 0.00 | 0.00 | 82 | 1019.6 |
| 20260902135008 | 26 | 110 | 0.0 | 3.2 | 0.00 | 0.00 | 0.00 | 83 | 1019.6 |
| 20260902134517 | 26 | 110 | 0.0 | 3.2 | 0.00 | 0.00 | 0.00 | 83 | 1019.6 |
| 20260902134011 | 26 | 110 | 0.0 | 4.8 | 0.00 | 0.00 | 0.00 | 84 | 1019.6 |
| 20260902133512 | 25 | 110 | 0.0 | 4.8 | 0.00 | 0.00 | 0.00 | 85 | 1019.6 |
| 20260902133023 | 25 | 150 | 0.0 | 3.2 | 0.00 | 0.00 | 0.00 | 86 | 1019.7 |
| 20260902132509 | 25 | 171 | 0.0 | 3.2 | 0.00 | 0.00 | 0.00 | 86 | 1019.6 |
| 20260902132011 | 25 | 171 | 0.0 | 3.2 | 0.00 | 0.00 | 0.00 | 87 | 1019.6 |
| 20260902131522 | 25 | 171 | 0.0 | 0.0 | 0.00 | 0.00 | 0.00 | 87 | 1019.7 |
| 20260902131008 | 24 | 171 | 0.0 | 0.0 | 0.00 | 0.00 | 0.00 | 88 | 1019.7 |
| 20260902130510 | 24 | 171 | 0.0 | 0.0 | 0.00 | 0.00 | 0.00 | 88 | 1019.7 |
| 20260902130023 | 24 | 171 | 0.0 | 0.0 | 0.00 | 0.00 | 0.00 | 89 | 1019.7 |
| 20260902125513 | 23 | 171 | 0.0 | 3.2 | 0.00 | 0.00 | 0.00 | 89 | 1019.6 |
| 20260902125011 | 23 | 171 | 0.0 | 3.2 | 0.00 | 0.00 | 0.00 | 90 | 1019.7 |
| 20260902124523 | 23 | 171 | 0.0 | 3.2 | 0.00 | 0.00 | 0.00 | 91 | 1019.5 |
| 20260902124011 | 23 | 171 | 0.0 | 3.2 | 0.00 | 0.00 | 0.00 | 91 | 1019.6 |
| 20260902123511 | 23 | 152 | 0.0 | 0.0 | 0.00 | 0.00 | 0.00 | 92 | 1019.5 |
| 20260902123023 | 22 | 152 | 0.0 | 0.0 | 0.00 | 0.00 | 0.00 | 93 | 1019.4 |
| 20260902122512 | 22 | 152 | 0.0 | 0.0 | 0.00 | 0.00 | 0.00 | 94 | 1019.3 |
| 20260902122013 | 22 | 152 | 0.0 | 0.0 | 0.00 | 0.00 | 0.00 | 94 | 1019.3 |
| 20260902121524 | 22 | 152 | 0.0 | 0.0 | 0.00 | 0.00 | 0.00 | 95 | 1019.3 |
| 20260902121012 | 22 | 152 | 0.0 | 0.0 | 0.00 | 0.00 | 0.00 | 95 | 1019.3 |
| 20260902120513 | 22 | 152 | 0.0 | 0.0 | 0.00 | 0.00 | 0.00 | 95 | 1019.2 |
| 20260902120003 | 21 | 152 | 0.0 | 0.0 | 0.00 | 0.00 | 0.00 | 95 | 1019.1 |
| 20260902115502 | 21 | 152 | 0.0 | 0.0 | 0.00 | 0.00 | 0.00 | 95 | 1019.0 |
| 20260902115002 | 21 | 152 | 0.0 | 0.0 | 0.00 | 0.00 | 0.00 | 95 | 1018.9 |
| 20260902114504 | 21 | 152 | 0.0 | 0.0 | 0.00 | 0.00 | 0.00 | 95 | 1018.8 |
| 20260902114003 | 21 | 152 | 0.0 | 0.0 | 0.00 | 0.00 | 0.00 | 95 | 1018.8 |
| 20260902113503 | 21 | 152 | 0.0 | 0.0 | 0.00 | 0.00 | 0.00 | 95 | 1018.8 |
| 20260902113009 | 21 | 152 | 0.0 | 0.0 | 0.00 | 0.00 | 0.00 | 95 | 1018.8 |
| 20260902112504 | 21 | 152 | 0.0 | 0.0 | 0.00 | 0.00 | 0.00 | 95 | 1018.8 |
| 20260902112006 | 21 | 152 | 0.0 | 0.0 | 0.00 | 0.00 | 0.00 | 95 | 1018.7 |
| 20260902111512 | 21 | 152 | 0.0 | 0.0 | 0.00 | 0.00 | 0.00 | 95 | 1018.6 |
| 20260902111006 | 21 | 152 | 0.0 | 0.0 | 0.00 | 0.00 | 0.00 | 95 | 1018.6 |
| 20260902110505 | 21 | 152 | 0.0 | 0.0 | 0.00 | 0.00 | 0.00 | 95 | 1018.5 |
| 20260902110018 | 21 | 152 | 0.0 | 0.0 | 0.00 | 0.00 | 0.00 | 95 | 1018.6 |
| 20260902105505 | 21 | 152 | 0.0 | 0.0 | 0.00 | 0.00 | 0.00 | 95 | 1018.6 |
| 20260902105003 | 21 | 152 | 0.0 | 0.0 | 0.00 | 0.00 | 0.00 | 95 | 1018.6 |
| 20260902104505 | 21 | 152 | 0.0 | 0.0 | 0.00 | 0.00 | 0.00 | 95 | 1018.7 |
| 20260902104004 | 21 | 152 | 0.0 | 0.0 | 0.00 | 0.00 | 0.00 | 95 | 1018.6 |
| 20260902103504 | 21 | 152 | 0.0 | 0.0 | 0.00 | 0.00 | 0.00 | 95 | 1018.6 |
| 20260902103008 | 21 | 152 | 0.0 | 0.0 | 0.00 | 0.00 | 0.00 | 95 | 1018.6 |
| 20260902102503 | 21 | 152 | 0.0 | 0.0 | 0.00 | 0.00 | 0.00 | 95 | 1018.6 |
| 20260902102004 | 21 | 152 | 0.0 | 0.0 | 0.00 | 0.00 | 0.00 | 95 | 1018.6 |
| 20260902101508 | 21 | 152 | 0.0 | 0.0 | 0.00 | 0.00 | 0.00 | 95 | 1018.6 |
| 20260902101005 | 22 | 152 | 0.0 | 0.0 | 0.00 | 0.00 | 0.00 | 95 | 1018.6 |
| 20260902100504 | 21 | 152 | 0.0 | 0.0 | 0.00 | 0.00 | 0.00 | 95 | 1018.6 |
| 20260902100014 | 21 | 152 | 0.0 | 0.0 | 0.00 | 0.00 | 0.00 | 95 | 1018.5 |
| 20260902095507 | 21 | 152 | 0.0 | 0.0 | 0.00 | 0.00 | 0.00 | 95 | 1018.4 |
| 20260902095010 | 21 | 152 | 0.0 | 0.0 | 0.00 | 0.00 | 0.00 | 95 | 1018.4 |
| 20260902094524 | 21 | 152 | 0.0 | 0.0 | 0.00 | 0.00 | 0.00 | 95 | 1018.4 |
| 20260902094001 | 21 | 152 | 0.0 | 0.0 | 0.00 | 0.00 | 0.00 | 95 | 1018.5 |
| 20260902093502 | 21 | 152 | 0.0 | 0.0 | 0.00 | 0.00 | 0.00 | 95 | 1018.4 |
| 20260902093003 | 22 | 152 | 0.0 | 0.0 | 0.00 | 0.00 | 0.00 | 95 | 1018.4 |
| 20260902092502 | 22 | 152 | 0.0 | 0.0 | 0.00 | 0.00 | 0.00 | 95 | 1018.4 |
| 20260902092004 | 22 | 152 | 0.0 | 0.0 | 0.00 | 0.00 | 0.00 | 95 | 1018.4 |
| 20260902091507 | 22 | 152 | 0.0 | 0.0 | 0.00 | 0.00 | 0.00 | 95 | 1018.4 |
| 20260902091002 | 22 | 152 | 0.0 | 0.0 | 0.00 | 0.00 | 0.00 | 95 | 1018.3 |
| 20260902090503 | 22 | 152 | 0.0 | 0.0 | 0.00 | 0.00 | 0.00 | 95 | 1018.3 |
| 20260902090013 | 22 | 152 | 0.0 | 0.0 | 0.00 | 0.00 | 0.00 | 95 | 1018.2 |
| 20260902085505 | 22 | 152 | 0.0 | 0.0 | 0.00 | 0.00 | 0.00 | 95 | 1018.2 |
| 20260902085011 | 22 | 152 | 0.0 | 0.0 | 0.00 | 0.00 | 0.00 | 95 | 1018.2 |
| 20260902084516 | 22 | 152 | 0.0 | 0.0 | 0.00 | 0.00 | 0.00 | 95 | 1018.1 |
| 20260902084013 | 22 | 152 | 0.0 | 0.0 | 0.00 | 0.00 | 0.00 | 95 | 1018.0 |
| 20260902083511 | 22 | 152 | 0.0 | 0.0 | 0.00 | 0.00 | 0.00 | 95 | 1017.9 |
| 20260902083004 | 22 | 152 | 0.0 | 0.0 | 0.00 | 0.00 | 0.00 | 95 | 1017.9 |
| 20260902082502 | 22 | 152 | 0.0 | 0.0 | 0.00 | 0.00 | 0.00 | 95 | 1017.9 |
| 20260902082002 | 22 | 152 | 0.0 | 0.0 | 0.00 | 0.00 | 0.00 | 95 | 1017.9 |
| 20260902081514 | 22 | 152 | 0.0 | 0.0 | 0.00 | 0.00 | 0.00 | 95 | 1017.8 |
| 20260902081003 | 22 | 152 | 0.0 | 0.0 | 0.00 | 0.00 | 0.00 | 95 | 1017.7 |
| 20260902080503 | 22 | 152 | 0.0 | 0.0 | 0.00 | 0.00 | 0.00 | 95 | 1017.8 |
| 20260902080008 | 22 | 152 | 0.0 | 0.0 | 0.00 | 0.00 | 0.00 | 95 | 1017.8 |
| 20260902075506 | 22 | 152 | 0.0 | 0.0 | 0.00 | 0.00 | 0.00 | 95 | 1017.7 |
| 20260902075006 | 22 | 152 | 0.0 | 0.0 | 0.00 | 0.00 | 0.00 | 95 | 1017.7 |
| 20260902074516 | 22 | 152 | 0.0 | 0.0 | 0.00 | 0.00 | 0.00 | 95 | 1017.6 |
| 20260902074008 | 22 | 152 | 0.0 | 0.0 | 0.00 | 0.00 | 0.00 | 94 | 1017.6 |
| 20260902073510 | 22 | 152 | 0.0 | 0.0 | 0.00 | 0.00 | 0.00 | 94 | 1017.6 |
| 20260902073024 | 22 | 152 | 0.0 | 0.0 | 0.00 | 0.00 | 0.00 | 94 | 1017.7 |
| 20260902072512 | 22 | 152 | 0.0 | 0.0 | 0.00 | 0.00 | 0.00 | 94 | 1017.8 |
| 20260902072011 | 22 | 152 | 0.0 | 0.0 | 0.00 | 0.00 | 0.00 | 94 | 1017.8 |
| 20260902071510 | 22 | 152 | 0.0 | 0.0 | 0.00 | 0.00 | 0.00 | 94 | 1017.7 |
| 20260902071003 | 22 | 152 | 0.0 | 0.0 | 0.00 | 0.00 | 0.00 | 94 | 1017.7 |
| 20260902070507 | 22 | 152 | 0.0 | 0.0 | 0.00 | 0.00 | 0.00 | 94 | 1017.7 |
| 20260902070009 | 22 | 152 | 0.0 | 0.0 | 0.00 | 0.00 | 0.00 | 94 | 1017.7 |
| 20260902065503 | 22 | 152 | 0.0 | 0.0 | 0.00 | 0.00 | 0.00 | 94 | 1017.7 |
| 20260902065006 | 22 | 152 | 0.0 | 0.0 | 0.00 | 0.00 | 0.00 | 94 | 1017.7 |
| 20260902064515 | 22 | 152 | 0.0 | 0.0 | 0.00 | 0.00 | 0.00 | 94 | 1017.7 |
| 20260902064007 | 22 | 152 | 0.0 | 0.0 | 0.00 | 0.00 | 0.00 | 94 | 1017.7 |
| 20260902063507 | 22 | 152 | 0.0 | 0.0 | 0.00 | 0.00 | 0.00 | 94 | 1017.7 |
| 20260902063018 | 22 | 152 | 0.0 | 0.0 | 0.00 | 0.00 | 0.00 | 94 | 1017.8 |
| 20260902062511 | 22 | 152 | 0.0 | 0.0 | 0.00 | 0.00 | 0.00 | 94 | 1017.8 |
| 20260902062011 | 22 | 152 | 0.0 | 0.0 | 0.00 | 0.00 | 0.00 | 94 | 1017.8 |
| 20260902061530 | 22 | 152 | 0.0 | 0.0 | 0.00 | 0.00 | 0.00 | 94 | 1017.8 |
| 20260902061012 | 22 | 152 | 0.0 | 0.0 | 0.00 | 0.00 | 0.00 | 93 | 1017.9 |
| 20260902060515 | 23 | 152 | 0.0 | 0.0 | 0.00 | 0.00 | 0.00 | 93 | 1017.8 |
| 20260902060015 | 23 | 152 | 0.0 | 0.0 | 0.00 | 0.00 | 0.00 | 93 | 1017.8 |
| 20260902055507 | 23 | 152 | 0.0 | 0.0 | 0.00 | 0.00 | 0.00 | 93 | 1017.9 |
| 20260902055003 | 23 | 152 | 0.0 | 0.0 | 0.00 | 0.00 | 0.00 | 93 | 1017.9 |
| 20260902054514 | 23 | 152 | 0.0 | 0.0 | 0.00 | 0.00 | 0.00 | 93 | 1017.9 |
| 20260902054003 | 23 | 152 | 0.0 | 0.0 | 0.00 | 0.00 | 0.00 | 93 | 1017.9 |
| 20260902053508 | 23 | 152 | 0.0 | 0.0 | 0.00 | 0.00 | 0.00 | 92 | 1017.9 |
| 20260902053032 | 23 | 152 | 0.0 | 0.0 | 0.00 | 0.00 | 0.00 | 92 | 1017.9 |
| 20260902052510 | 23 | 152 | 0.0 | 0.0 | 0.00 | 0.00 | 0.00 | 92 | 1017.9 |
| 20260902052012 | 23 | 152 | 0.0 | 0.0 | 0.00 | 0.00 | 0.00 | 92 | 1017.9 |
| 20260902051526 | 23 | 152 | 0.0 | 0.0 | 0.00 | 0.00 | 0.00 | 92 | 1017.9 |
| 20260902051017 | 23 | 152 | 0.0 | 0.0 | 0.00 | 0.00 | 0.00 | 92 | 1017.9 |
| 20260902050512 | 23 | 152 | 0.0 | 0.0 | 0.00 | 0.00 | 0.00 | 92 | 1018.0 |
| 20260902050028 | 23 | 152 | 0.0 | 0.0 | 0.00 | 0.00 | 0.00 | 91 | 1017.9 |
| 20260902045514 | 23 | 152 | 0.0 | 0.0 | 0.00 | 0.00 | 0.00 | 91 | 1017.9 |
| 20260902045016 | 23 | 152 | 0.0 | 0.0 | 0.00 | 0.00 | 0.00 | 91 | 1018.0 |
| 20260902044511 | 23 | 152 | 0.0 | 0.0 | 0.00 | 0.00 | 0.00 | 91 | 1017.9 |
| 20260902044003 | 23 | 152 | 0.0 | 0.0 | 0.00 | 0.00 | 0.00 | 91 | 1017.8 |
| 20260902043503 | 23 | 152 | 0.0 | 0.0 | 0.00 | 0.00 | 0.00 | 91 | 1017.9 |
| 20260902043012 | 23 | 152 | 0.0 | 0.0 | 0.00 | 0.00 | 0.00 | 90 | 1017.8 |
| 20260902042507 | 23 | 152 | 0.0 | 0.0 | 0.00 | 0.00 | 0.00 | 90 | 1017.9 |
| 20260902042010 | 23 | 152 | 0.0 | 0.0 | 0.00 | 0.00 | 0.00 | 90 | 1017.9 |
| 20260902041524 | 24 | 152 | 0.0 | 0.0 | 0.00 | 0.00 | 0.00 | 90 | 1017.9 |
| 20260902041010 | 24 | 152 | 0.0 | 0.0 | 0.00 | 0.00 | 0.00 | 90 | 1017.9 |
| 20260902040516 | 24 | 152 | 0.0 | 0.0 | 0.00 | 0.00 | 0.00 | 90 | 1017.8 |
| 20260902040028 | 24 | 152 | 0.0 | 0.0 | 0.00 | 0.00 | 0.00 | 89 | 1017.8 |
| 20260902035514 | 24 | 152 | 0.0 | 0.0 | 0.00 | 0.00 | 0.00 | 89 | 1017.7 |
| 20260902035014 | 24 | 152 | 0.0 | 0.0 | 0.00 | 0.00 | 0.00 | 88 | 1017.8 |
| 20260902034531 | 24 | 152 | 0.0 | 0.0 | 0.00 | 0.00 | 0.00 | 88 | 1017.8 |
| 20260902034013 | 25 | 152 | 0.0 | 0.0 | 0.00 | 0.00 | 0.00 | 88 | 1017.8 |
| 20260902033515 | 24 | 152 | 0.0 | 0.0 | 0.00 | 0.00 | 0.00 | 88 | 1017.8 |
| 20260902033015 | 24 | 152 | 0.0 | 0.0 | 0.00 | 0.00 | 0.00 | 88 | 1017.8 |
| 20260902032504 | 24 | 152 | 0.0 | 0.0 | 0.00 | 0.00 | 0.00 | 88 | 1017.9 |
| 20260902032007 | 24 | 152 | 0.0 | 0.0 | 0.00 | 0.00 | 0.00 | 87 | 1017.9 |
| 20260902031515 | 25 | 152 | 0.0 | 0.0 | 0.00 | 0.00 | 0.00 | 87 | 1017.9 |
| 20260902031009 | 25 | 152 | 0.0 | 0.0 | 0.00 | 0.00 | 0.00 | 87 | 1017.9 |
| 20260902030510 | 25 | 152 | 0.0 | 0.0 | 0.00 | 0.00 | 0.00 | 86 | 1018.0 |
| 20260902030003 | 25 | 152 | 0.0 | 0.0 | 0.00 | 0.00 | 0.00 | 86 | 1018.0 |
| 20260902025503 | 25 | 152 | 0.0 | 0.0 | 0.00 | 0.00 | 0.00 | 86 | 1018.0 |
| 20260902025005 | 25 | 152 | 0.0 | 0.0 | 0.00 | 0.00 | 0.00 | 85 | 1018.0 |
| 20260902024507 | 25 | 152 | 0.0 | 0.0 | 0.00 | 0.00 | 0.00 | 85 | 1018.1 |
| 20260902024003 | 25 | 152 | 0.0 | 0.0 | 0.00 | 0.00 | 0.00 | 85 | 1018.0 |
| 20260902023503 | 25 | 152 | 0.0 | 0.0 | 0.00 | 0.00 | 0.00 | 84 | 1018.1 |
| 20260902023006 | 25 | 152 | 0.0 | 0.0 | 0.00 | 0.00 | 0.00 | 84 | 1018.1 |
| 20260902022503 | 25 | 152 | 0.0 | 0.0 | 0.00 | 0.00 | 0.00 | 83 | 1018.1 |
| 20260902022003 | 25 | 152 | 0.0 | 0.0 | 0.00 | 0.00 | 0.00 | 83 | 1018.0 |
| 20260902021513 | 26 | 152 | 0.0 | 0.0 | 0.00 | 0.00 | 0.00 | 82 | 1018.1 |
| 20260902021008 | 26 | 152 | 0.0 | 0.0 | 0.00 | 0.00 | 0.00 | 82 | 1018.1 |
| 20260902020508 | 26 | 152 | 0.0 | 0.0 | 0.00 | 0.00 | 0.00 | 82 | 1018.1 |
| 20260902020003 | 26 | 152 | 0.0 | 0.0 | 0.00 | 0.00 | 0.00 | 82 | 1018.0 |
| 20260902015502 | 26 | 152 | 0.0 | 0.0 | 0.00 | 0.00 | 0.00 | 82 | 1018.1 |
| 20260902015002 | 26 | 152 | 0.0 | 0.0 | 0.00 | 0.00 | 0.00 | 81 | 1018.0 |
| 20260902014511 | 26 | 152 | 0.0 | 0.0 | 0.00 | 0.00 | 0.00 | 81 | 1018.0 |
| 20260902014006 | 26 | 152 | 0.0 | 0.0 | 0.00 | 0.00 | 0.00 | 81 | 1017.9 |
| 20260902013503 | 26 | 152 | 0.0 | 0.0 | 0.00 | 0.00 | 0.00 | 80 | 1017.9 |
| 20260902013005 | 26 | 152 | 0.0 | 0.0 | 0.00 | 0.00 | 0.00 | 80 | 1017.9 |
| 20260902012505 | 26 | 152 | 0.0 | 0.0 | 0.00 | 0.00 | 0.00 | 79 | 1017.8 |
| 20260902012004 | 26 | 152 | 0.0 | 0.0 | 0.00 | 0.00 | 0.00 | 78 | 1017.8 |
| 20260902011512 | 26 | 152 | 0.0 | 0.0 | 0.00 | 0.00 | 0.00 | 78 | 1017.7 |
| 20260902011004 | 27 | 152 | 0.0 | 0.0 | 0.00 | 0.00 | 0.00 | 77 | 1017.6 |
| 20260902010507 | 27 | 152 | 0.0 | 0.0 | 0.00 | 0.00 | 0.00 | 76 | 1017.6 |
| 20260902010014 | 27 | 152 | 0.0 | 0.0 | 0.00 | 0.00 | 0.00 | 75 | 1017.5 |
| 20260902005510 | 27 | 152 | 0.0 | 0.0 | 0.00 | 0.00 | 0.00 | 75 | 1017.5 |
| 20260902005011 | 27 | 152 | 0.0 | 0.0 | 0.00 | 0.00 | 0.00 | 75 | 1017.4 |
| 20260902004506 | 27 | 152 | 0.0 | 0.0 | 0.00 | 0.00 | 0.00 | 75 | 1017.5 |
| 20260902004003 | 27 | 152 | 0.0 | 0.0 | 0.00 | 0.00 | 0.00 | 74 | 1017.5 |
| 20260902003505 | 27 | 152 | 0.0 | 0.0 | 0.00 | 0.00 | 0.00 | 73 | 1017.5 |
| 20260902003007 | 27 | 152 | 0.0 | 0.0 | 0.00 | 0.00 | 0.00 | 72 | 1017.5 |
| 20260902002504 | 27 | 152 | 0.0 | 0.0 | 0.00 | 0.00 | 0.00 | 72 | 1017.5 |
| 20260902002004 | 27 | 152 | 0.0 | 0.0 | 0.00 | 0.00 | 0.00 | 72 | 1017.5 |
| 20260902001512 | 28 | 152 | 0.0 | 0.0 | 0.00 | 0.00 | 0.00 | 72 | 1017.6 |
| 20260902001004 | 28 | 152 | 0.0 | 0.0 | 0.00 | 0.00 | 0.00 | 71 | 1017.6 |
| 20260902000509 | 28 | 152 | 0.0 | 0.0 | 0.00 | 0.00 | 0.00 | 71 | 1017.7 |
| 20260902000012 | 28 | 152 | 0.0 | 0.0 | 0.00 | 0.00 | 0.00 | 71 | 1017.7 |
| 20260901235507 | 28 | 152 | 0.0 | 0.0 | 0.00 | 0.00 | 0.00 | 71 | 1017.6 |
| 20260901235009 | 28 | 152 | 0.0 | 0.0 | 0.00 | 0.00 | 0.00 | 72 | 1017.6 |
| 20260901234543 | 29 | 152 | 0.0 | 0.0 | 0.00 | 0.00 | 0.00 | 70 | 1017.7 |
| 20260901234012 | 29 | 152 | 0.0 | 0.0 | 0.00 | 0.00 | 0.00 | 69 | 1017.7 |
| 20260901233501 | 29 | 152 | 0.0 | 0.0 | 0.00 | 0.00 | 0.00 | 70 | 1017.7 |
| 20260901233002 | 30 | 152 | 0.0 | 0.0 | 0.00 | 0.00 | 0.00 | 69 | 1017.8 |
| 20260901232502 | 30 | 152 | 0.0 | 1.6 | 0.00 | 0.00 | 0.00 | 68 | 1017.8 |
| 20260901232002 | 30 | 152 | 0.0 | 1.6 | 0.00 | 0.00 | 0.00 | 67 | 1017.8 |
| 20260901231507 | 30 | 192 | 0.0 | 0.0 | 0.00 | 0.00 | 0.00 | 67 | 1017.8 |
| 20260901231003 | 30 | 192 | 0.0 | 3.2 | 0.00 | 0.00 | 0.00 | 66 | 1017.8 |
| 20260901230503 | 31 | 192 | 0.0 | 3.2 | 0.00 | 0.00 | 0.00 | 66 | 1017.7 |
| 20260901230010 | 31 | 159 | 0.0 | 3.2 | 0.00 | 0.00 | 0.00 | 67 | 1017.8 |
| 20260901225504 | 31 | 159 | 0.0 | 3.2 | 0.00 | 0.00 | 0.00 | 68 | 1017.8 |
| 20260901225009 | 31 | 159 | 0.0 | 3.2 | 0.00 | 0.00 | 0.00 | 66 | 1017.8 |
| 20260901224523 | 31 | 168 | 0.0 | 3.2 | 0.00 | 0.00 | 0.00 | 65 | 1017.8 |
| 20260901224007 | 31 | 168 | 0.0 | 3.2 | 0.00 | 0.00 | 0.00 | 65 | 1017.7 |
| 20260901223511 | 31 | 228 | 0.0 | 1.6 | 0.00 | 0.00 | 0.00 | 62 | 1017.7 |
| 20260901223035 | 31 | 228 | 0.0 | 1.6 | 0.00 | 0.00 | 0.00 | 62 | 1017.7 |
| 20260901222516 | 32 | 228 | 0.0 | 4.8 | 0.00 | 0.00 | 0.00 | 61 | 1017.6 |
| 20260901222002 | 32 | 150 | 0.0 | 6.4 | 0.00 | 0.00 | 0.00 | 62 | 1017.6 |
| 20260901221509 | 32 | 150 | 0.0 | 6.4 | 0.00 | 0.00 | 0.00 | 61 | 1017.5 |
| 20260901221003 | 32 | 174 | 0.0 | 8.0 | 0.00 | 0.00 | 0.00 | 59 | 1017.5 |
| 20260901220501 | 32 | 203 | 0.0 | 8.0 | 0.00 | 0.00 | 0.00 | 59 | 1017.6 |
| 20260901220010 | 32 | 210 | 0.0 | 8.0 | 0.00 | 0.00 | 0.00 | 61 | 1017.5 |
| 20260901215506 | 32 | 115 | 0.0 | 9.7 | 0.00 | 0.00 | 0.00 | 61 | 1017.6 |
| 20260901215008 | 32 | 202 | 0.0 | 9.7 | 0.00 | 0.00 | 0.00 | 59 | 1017.6 |
| 20260901214513 | 32 | 117 | 1.6 | 6.4 | 0.00 | 0.00 | 0.00 | 58 | 1017.6 |
| 20260901214008 | 33 | 150 | 0.0 | 6.4 | 0.00 | 0.00 | 0.00 | 60 | 1017.5 |
| 20260901213509 | 33 | 171 | 0.0 | 11.3 | 0.00 | 0.00 | 0.00 | 57 | 1017.6 |
| 20260901213022 | 33 | 173 | 0.0 | 11.3 | 0.00 | 0.00 | 0.00 | 58 | 1017.6 |